| time (UTC) | temp F | wind direction | speed MPH | gust MPH | rain 1hr in | rain 24hr in | rain mn in | humidity % | barometer mb |
| 20260505090424 | 69 | 0 | 2.0 | 0.0 | 0.00 | 0.00 | 0.00 | 94 | 1012.0 |
| 20260505083423 | 68 | 0 | 2.0 | 0.0 | 0.00 | 0.00 | 0.00 | 94 | 1012.0 |
| 20260505080421 | 73 | 110 | 4.0 | 0.0 | 0.00 | 0.00 | 0.00 | 94 | 1012.0 |
| 20260505073420 | 72 | 110 | 4.0 | 0.0 | 0.00 | 0.00 | 0.00 | 94 | 1012.0 |
| 20260505070419 | 71 | 110 | 4.0 | 0.0 | 0.00 | 0.00 | 0.00 | 94 | 1012.0 |
| 20260505063418 | 70 | 110 | 4.0 | 0.0 | 0.00 | 0.00 | 0.00 | 94 | 1012.0 |
| 20260505060417 | 69 | 110 | 4.0 | 0.0 | 0.00 | 0.00 | 0.00 | 94 | 1013.0 |
| 20260505053416 | 68 | 130 | 3.0 | 0.0 | 0.00 | 0.00 | 0.00 | 94 | 1013.0 |
| 20260505050415 | 74 | 140 | 3.0 | 0.0 | 0.00 | 0.00 | 0.00 | 94 | 1013.0 |
| 20260505040413 | 72 | 200 | 3.0 | 0.0 | 0.00 | 0.00 | 0.00 | 94 | 1014.0 |
| 20260505033412 | 71 | 200 | 3.0 | 0.0 | 0.00 | 0.00 | 0.00 | 94 | 1014.0 |
| 20260505030411 | 70 | 0 | 2.0 | 0.0 | 0.00 | 0.00 | 0.00 | 94 | 1014.0 |
| 20260505023410 | 69 | 0 | 2.0 | 0.0 | 0.00 | 0.00 | 0.00 | 94 | 1014.0 |
| 20260505020409 | 76 | 80 | 8.0 | 0.0 | 0.00 | 0.00 | 0.00 | 83 | 1013.0 |
| 20260505013407 | 75 | 80 | 8.0 | 0.0 | 0.00 | 0.00 | 0.00 | 83 | 1013.0 |
| 20260505010406 | 74 | 80 | 8.0 | 0.0 | 0.02 | 0.00 | 0.00 | 83 | 1012.0 |
| 20260505003405 | 73 | 80 | 8.0 | 0.0 | 0.00 | 0.00 | 0.00 | 83 | 1012.0 |
| 20260505000405 | 80 | 330 | 9.0 | 0.0 | 0.00 | 0.00 | 0.00 | 61 | 1011.0 |
| 20260504233403 | 80 | 330 | 9.0 | 0.0 | 0.00 | 0.00 | 0.00 | 61 | 1011.0 |
| 20260504230402 | 80 | 330 | 9.0 | 0.0 | 0.00 | 0.00 | 0.00 | 61 | 1010.0 |
| 20260504223401 | 81 | 320 | 10.0 | 0.0 | 0.00 | 0.00 | 0.00 | 61 | 1010.0 |
| 20260504220400 | 80 | 320 | 10.0 | 0.0 | 0.00 | 0.00 | 0.00 | 61 | 1009.0 |
| 20260504213359 | 82 | 330 | 9.0 | 0.0 | 0.00 | 0.00 | 0.00 | 57 | 1009.0 |
| 20260504210358 | 83 | 320 | 9.0 | 0.0 | 0.00 | 0.00 | 0.00 | 65 | 1008.0 |
| 20260504203357 | 82 | 320 | 9.0 | 0.0 | 0.00 | 0.00 | 0.00 | 65 | 1008.0 |
| 20260504200356 | 81 | 60 | 3.0 | 0.0 | 0.00 | 0.00 | 0.00 | 65 | 1008.0 |
| 20260504193355 | 80 | 60 | 3.0 | 0.0 | 0.00 | 0.00 | 0.00 | 65 | 1008.0 |
| 20260504190354 | 87 | 10 | 5.0 | 0.0 | 0.00 | 0.00 | 0.00 | 10 | 1009.0 |
| 20260504183353 | 86 | 10 | 5.0 | 0.0 | 0.00 | 0.00 | 0.00 | 10 | 1009.0 |
| 20260504180352 | 85 | 10 | 5.0 | 0.0 | 0.00 | 0.00 | 0.00 | 10 | 1010.0 |
| 20260504173351 | 84 | 10 | 5.0 | 0.0 | 0.00 | 0.00 | 0.00 | 10 | 1010.0 |
| 20260504170350 | 83 | 10 | 5.0 | 0.0 | 0.00 | 0.00 | 0.00 | 10 | 1012.0 |
| 20260504160348 | 81 | 10 | 5.0 | 0.0 | 0.00 | 0.00 | 0.00 | 10 | 1013.0 |
| 20260504150345 | 79 | 320 | 3.0 | 0.0 | 0.00 | 0.00 | 0.00 | 10 | 1014.0 |
| 20260504140343 | 77 | 320 | 3.0 | 0.0 | 0.00 | 0.00 | 0.00 | 10 | 1014.0 |
| 20260504130341 | 75 | 30 | 2.0 | 0.0 | 0.00 | 0.00 | 0.00 | 10 | 1014.0 |
| 20260504110337 | 71 | 0 | 1.0 | 0.0 | 0.00 | 0.00 | 0.00 | 10 | 1013.0 |
| 20260504100335 | 69 | 0 | 1.0 | 0.0 | 0.00 | 0.00 | 0.00 | 10 | 1013.0 |